Location: Étang Rond
(42.7927°N, 1.0661°E)
Time: 01:18:28
(UTC+00:00)

COSMO-SKYMED 1 - Pass Details

Date: 08 November 2025
Orbit: 579 x 581 km, 97.9° (Epoch: 07 December)

Event Time Altitude Azimuth Distance (km) Brightness Sun altitude
Rises 04:50:57 0° 149° (SSE) 2,792 6.4 -20.0°
Reaches altitude 10° 04:53:10 10° 142° (SE) 1,897 5.6 -19.6°
Maximum altitude 04:57:03 42° 72° (ENE) 835 3.7 -18.9°
Drops below altitude 10° 05:00:58 10° 1° (N) 1,909 5.0 -18.2°
Sets 05:03:12 0° 355° (N) 2,813 5.8 -17.8°
